Terminal Aerodrome Forecast
Issued by NWS

Current Version | Previous Version | Graphics & Text | Print | Product List | Glossary On
Versions: 1 2 3 4 5 6 7 8 9 10 11 12 13 14 15 16 17 18 19 20 21 22 23 24 25 26
000
FTUS41 KPBZ 152300
TAFMGW
TAF
KMGW 152320Z 1600/1624 VRB03KT P6SM BKN250
     FM160800 15007KT P6SM -SHRA OVC030
     FM161300 16006KT 6SM -SHRA BR OVC020
     FM161700 20006KT 3SM BR OVC015
     FM162100 24008KT 2SM -SHRA BR OVC015=

USA.gov is the U.S. government's official web portal to all federal, state and local government web resources and services.